Location: Downe
(51.3167°N, 0.0500°E)
Time: 08:36:24
(UTC+00:00)

NOSS 3-4 (C) - Pass Details

Date: 17 November 2019
Orbit: 907 x 1306 km, 63.4° (Epoch: 11 December)

Event Time Altitude Azimuth Distance (km) Brightness Sun altitude
Exits shadow 04:41:11 32° 323° (NW) 1,776 4.5 -24.5°
Maximum altitude 04:44:42 74° 42° (NE) 1,169 3.9 -23.9°
Drops below altitude 10° 04:52:15 10° 128° (SE) 3,145 6.9 -22.8°
Sets 04:55:08 0° 130° (SE) 4,157 7.6 -22.3°
